Location: Bretagne
(43.8474°N, 0.4650°W)
Time: 15:47:35
(UTC+00:00)

COSMOS 2455 - Pass Details

Date: 15 January 2026
Orbit: 899 x 909 km, 67.1° (Epoch: 18 February)

Event Time Altitude Azimuth Distance (km) Brightness Sun altitude
Rises 19:40:36 0° 331° (NNW) 3,547 6.3 -30.3°
Reaches altitude 10° 19:43:11 10° 335° (NNW) 2,602 5.5 -30.7°
Enters shadow 19:46:22 31° 349° (N) 1,536 4.0 -31.3°
